International Skating Union - Official Site

ESSENT ISU EUROPEAN SPEED SKATING CHAMPIONSHIPS 2012
January 6-8, 2012

Draw | Lap Times | Index | Classification

Referee: Helmut  RIPPER  (GER)
Starter: Ole Herman  SÖRLI  (NOR)
StartTime: EndTime: Air Temp: Ice Temp: Humidity:
14:45 16:58 7℃ -6℃ 49%
Result 10000m Men
Rankings as of Jan 8 2012 5:00PM
Rank: No.: Name: Nation: Time: Behind: Points:
1 23 Sven  KRAMER NED NED 13:45.05400m - 36.67 - (36.6)
800m - 1:08.74 - (32.0)
1200m - 1:40.95 - (32.2)
1600m - 2:13.14 - (32.1)
2000m - 2:46.66 - (33.5)
2400m - 3:19.59 - (32.9)
2800m - 3:52.65 - (33.0)
3200m - 4:25.61 - (32.9)
3600m - 4:59.92 - (34.3)
4000m - 5:32.58 - (32.6)
4400m - 6:05.23 - (32.6)
4800m - 6:37.76 - (32.5)
5200m - 7:11.00 - (33.2)
5600m - 7:44.05 - (33.0)
6000m - 8:16.77 - (32.7)
6400m - 8:49.12 - (32.3)
6800m - 9:21.56 - (32.4)
7200m - 9:53.86 - (32.2)
7600m - 10:26.58 - (32.7)
8000m - 10:59.27 - (32.6)
8400m - 11:32.48 - (33.2)
8800m - 12:05.56 - (33.0)
9200m - 12:38.55 - (32.9)
9600m - 13:11.18 - (32.6)
10000m - 13:45.05 - (33.8)
41.252
2 21 Jan  BLOKHUIJSEN NED NED 13:52.48400m - 36.07 - (36.0)
800m - 1:08.57 - (32.5)
1200m - 1:40.87 - (32.3)
1600m - 2:13.51 - (32.6)
2000m - 2:46.05 - (32.5)
2400m - 3:19.36 - (33.3)
2800m - 3:52.26 - (32.9)
3200m - 4:25.39 - (33.1)
3600m - 4:59.16 - (33.7)
4000m - 5:33.04 - (33.8)
4400m - 6:05.65 - (32.6)
4800m - 6:38.70 - (33.0)
5200m - 7:11.60 - (32.9)
5600m - 7:45.24 - (33.6)
6000m - 8:18.13 - (32.8)
6400m - 8:51.02 - (32.8)
6800m - 9:24.08 - (33.0)
7200m - 9:56.77 - (32.6)
7600m - 10:29.73 - (32.9)
8000m - 11:03.10 - (33.3)
8400m - 11:36.73 - (33.6)
8800m - 12:10.63 - (33.9)
9200m - 12:44.37 - (33.7)
9600m - 13:18.47 - (34.1)
10000m - 13:52.48 - (34.0)
7.43 41.624
3 25 Håvard  BØKKO NOR NOR 14:02.83400m - 36.23 - (36.2)
800m - 1:09.18 - (32.9)
1200m - 1:42.83 - (33.6)
1600m - 2:16.46 - (33.6)
2000m - 2:50.60 - (34.1)
2400m - 3:24.60 - (34.0)
2800m - 3:57.73 - (33.1)
3200m - 4:31.11 - (33.3)
3600m - 5:04.94 - (33.8)
4000m - 5:38.27 - (33.3)
4400m - 6:12.04 - (33.7)
4800m - 6:46.38 - (34.3)
5200m - 7:19.83 - (33.4)
5600m - 7:53.66 - (33.8)
6000m - 8:27.47 - (33.8)
6400m - 9:00.94 - (33.4)
6800m - 9:34.62 - (33.6)
7200m - 10:08.19 - (33.5)
7600m - 10:41.79 - (33.6)
8000m - 11:15.59 - (33.8)
8400m - 11:49.61 - (34.0)
8800m - 12:23.18 - (33.5)
9200m - 12:56.84 - (33.6)
9600m - 13:30.13 - (33.2)
10000m - 14:02.83 - (32.7)
17.78 42.141
4 8 Alexis  CONTIN FRA FRA 14:05.84400m - 36.71 - (36.7)
800m - 1:10.12 - (33.4)
1200m - 1:45.14 - (35.0)
1600m - 2:19.83 - (34.6)
2000m - 2:54.06 - (34.2)
2400m - 3:27.29 - (33.2)
2800m - 4:00.38 - (33.0)
3200m - 4:34.61 - (34.2)
3600m - 5:08.84 - (34.2)
4000m - 5:41.72 - (32.8)
4400m - 6:15.88 - (34.1)
4800m - 6:50.07 - (34.1)
5200m - 7:23.71 - (33.6)
5600m - 7:57.59 - (33.8)
6000m - 8:31.38 - (33.8)
6400m - 9:05.53 - (34.1)
6800m - 9:40.16 - (34.6)
7200m - 10:14.72 - (34.5)
7600m - 10:48.50 - (33.7)
8000m - 11:20.07 - (31.5)
8400m - 11:52.89 - (32.8)
8800m - 12:26.50 - (33.6)
9200m - 13:00.10 - (33.6)
9600m - 13:33.20 - (33.1)
10000m - 14:05.84 - (32.6)
20.79 42.292
5 24 Koen  VERWEIJ NED NED 14:05.98400m - 36.22 - (36.2)
800m - 1:09.09 - (32.8)
1200m - 1:42.72 - (33.6)
1600m - 2:16.05 - (33.3)
2000m - 2:49.57 - (33.5)
2400m - 3:23.30 - (33.7)
2800m - 3:57.60 - (34.3)
3200m - 4:31.51 - (33.9)
3600m - 5:05.00 - (33.4)
4000m - 5:38.74 - (33.7)
4400m - 6:12.52 - (33.7)
4800m - 6:46.15 - (33.6)
5200m - 7:20.09 - (33.9)
5600m - 7:54.11 - (34.0)
6000m - 8:27.65 - (33.5)
6400m - 9:01.35 - (33.7)
6800m - 9:35.17 - (33.8)
7200m - 10:09.42 - (34.2)
7600m - 10:43.42 - (34.0)
8000m - 11:17.05 - (33.6)
8400m - 11:50.99 - (33.9)
8800m - 12:24.78 - (33.7)
9200m - 12:59.00 - (34.2)
9600m - 13:32.85 - (33.8)
10000m - 14:05.98 - (33.1)
20.93 42.299
6 20 Ted-Jan  BLOEMEN NED NED 14:08.83400m - 35.83 - (35.8)
800m - 1:08.75 - (32.9)
1200m - 1:42.93 - (34.1)
1600m - 2:17.83 - (34.9)
2000m - 2:52.41 - (34.5)
2400m - 3:25.70 - (33.2)
2800m - 3:59.63 - (33.9)
3200m - 4:33.78 - (34.1)
3600m - 5:08.87 - (35.0)
4000m - 5:42.76 - (33.8)
4400m - 6:17.12 - (34.3)
4800m - 6:51.54 - (34.4)
5200m - 7:25.03 - (33.4)
5600m - 7:59.13 - (34.1)
6000m - 8:33.15 - (34.0)
6400m - 9:06.66 - (33.5)
6800m - 9:41.62 - (34.9)
7200m - 10:15.36 - (33.7)
7600m - 10:48.49 - (33.1)
8000m - 11:21.77 - (33.2)
8400m - 11:55.56 - (33.7)
8800m - 12:29.23 - (33.6)
9200m - 13:02.67 - (33.4)
9600m - 13:35.41 - (32.7)
10000m - 14:08.83 - (33.4)
23.78 42.441
7 3 Bart  SWINGS BEL BEL 14:19.14400m - 38.50 - (38.5)
800m - 1:12.66 - (34.1)
1200m - 1:46.71 - (34.0)
1600m - 2:21.89 - (35.1)
2000m - 2:56.62 - (34.7)
2400m - 3:30.81 - (34.1)
2800m - 4:05.07 - (34.2)
3200m - 4:39.90 - (34.8)
3600m - 5:14.57 - (34.6)
4000m - 5:49.53 - (34.9)
4400m - 6:23.59 - (34.0)
4800m - 6:58.03 - (34.4)
5200m - 7:32.27 - (34.2)
5600m - 8:06.47 - (34.2)
6000m - 8:40.75 - (34.2)
6400m - 9:14.29 - (33.5)
6800m - 9:48.31 - (34.0)
7200m - 10:21.88 - (33.5)
7600m - 10:55.48 - (33.6)
8000m - 11:29.02 - (33.5)
8400m - 12:02.73 - (33.7)
8800m - 12:37.01 - (34.2)
9200m - 13:11.34 - (34.3)
9600m - 13:45.10 - (33.7)
10000m - 14:19.14 - (34.0)
34.09 42.957
8 29 Sverre  LUNDE PEDERSEN NOR NOR 14:21.61400m - 36.86 - (36.8)
800m - 1:10.27 - (33.4)
1200m - 1:43.89 - (33.6)
1600m - 2:17.85 - (33.9)
2000m - 2:52.26 - (34.4)
2400m - 3:26.68 - (34.4)
2800m - 4:01.32 - (34.6)
3200m - 4:35.80 - (34.4)
3600m - 5:09.71 - (33.9)
4000m - 5:43.79 - (34.0)
4400m - 6:17.96 - (34.1)
4800m - 6:52.26 - (34.3)
5200m - 7:26.46 - (34.2)
5600m - 8:00.89 - (34.4)
6000m - 8:35.14 - (34.2)
6400m - 9:09.54 - (34.4)
6800m - 9:43.97 - (34.4)
7200m - 10:18.50 - (34.5)
7600m - 10:52.93 - (34.4)
8000m - 11:26.95 - (34.0)
8400m - 12:01.49 - (34.5)
8800m - 12:36.09 - (34.5)
9200m - 13:11.21 - (35.1)
9600m - 13:46.36 - (35.1)
10000m - 14:21.61 - (35.2)
36.56 43.080
9 19 Haralds  SILOVS LAT LAT 14:23.38400m - 36.76 - (36.7)
800m - 1:10.26 - (33.4)
1200m - 1:44.27 - (34.0)
1600m - 2:18.68 - (34.4)
2000m - 2:53.32 - (34.6)
2400m - 3:27.48 - (34.1)
2800m - 4:00.95 - (33.4)
3200m - 4:34.82 - (33.8)
3600m - 5:08.91 - (34.0)
4000m - 5:42.36 - (33.4)
4400m - 6:16.28 - (33.9)
4800m - 6:50.82 - (34.5)
5200m - 7:24.94 - (34.1)
5600m - 7:59.15 - (34.2)
6000m - 8:33.40 - (34.2)
6400m - 9:07.29 - (33.8)
6800m - 9:41.42 - (34.1)
7200m - 10:15.32 - (33.8)
7600m - 10:49.44 - (34.1)
8000m - 11:24.67 - (35.2)
8400m - 12:00.38 - (35.7)
8800m - 12:36.53 - (36.1)
9200m - 13:12.42 - (35.8)
9600m - 13:47.83 - (35.4)
10000m - 14:23.38 - (35.5)
38.33 43.169
10 38 Denis  YUSKOV RUS RUS 14:23.93400m - 36.74 - (36.7)
800m - 1:10.30 - (33.5)
1200m - 1:43.77 - (33.4)
1600m - 2:17.85 - (34.0)
2000m - 2:51.62 - (33.7)
2400m - 3:25.63 - (34.0)
2800m - 3:59.64 - (34.0)
3200m - 4:33.67 - (34.0)
3600m - 5:08.20 - (34.5)
4000m - 5:43.29 - (35.0)
4400m - 6:17.69 - (34.4)
4800m - 6:51.76 - (34.0)
5200m - 7:26.02 - (34.2)
5600m - 8:00.29 - (34.2)
6000m - 8:34.80 - (34.5)
6400m - 9:09.29 - (34.4)
6800m - 9:44.87 - (35.5)
7200m - 10:20.54 - (35.6)
7600m - 10:56.35 - (35.8)
8000m - 11:31.80 - (35.4)
8400m - 12:07.41 - (35.6)
8800m - 12:42.48 - (35.0)
9200m - 13:17.52 - (35.0)
9600m - 13:51.28 - (33.7)
10000m - 14:23.93 - (32.6)
38.88 43.196
11 33 Jan  SZYMANSKI POL POL 14:41.24400m - 37.51 - (37.5)
800m - 1:11.72 - (34.2)
1200m - 1:45.89 - (34.1)
1600m - 2:19.59 - (33.7)
2000m - 2:54.11 - (34.5)
2400m - 3:28.86 - (34.7)
2800m - 4:03.92 - (35.0)
3200m - 4:38.97 - (35.0)
3600m - 5:14.63 - (35.6)
4000m - 5:49.61 - (34.9)
4400m - 6:26.17 - (36.5)
4800m - 7:02.35 - (36.1)
5200m - 7:38.31 - (35.9)
5600m - 8:14.34 - (36.0)
6000m - 8:50.82 - (36.4)
6400m - 9:26.61 - (35.7)
6800m - 10:01.69 - (35.0)
7200m - 10:35.95 - (34.2)
7600m - 11:11.62 - (35.6)
8000m - 11:47.37 - (35.7)
8400m - 12:22.58 - (35.2)
8800m - 12:57.81 - (35.2)
9200m - 13:32.06 - (34.2)
9600m - 14:06.67 - (34.6)
10000m - 14:41.24 - (34.5)
56.19 44.062
12 30 Zbigniew  BRODKA POL POL 14:44.55400m - 38.57 - (38.5)
800m - 1:12.93 - (34.3)
1200m - 1:47.94 - (35.0)
1600m - 2:22.56 - (34.6)
2000m - 2:57.34 - (34.7)
2400m - 3:32.33 - (34.9)
2800m - 4:07.71 - (35.3)
3200m - 4:43.25 - (35.5)
3600m - 5:18.85 - (35.6)
4000m - 5:53.75 - (34.9)
4400m - 6:29.07 - (35.3)
4800m - 7:05.32 - (36.2)
5200m - 7:40.86 - (35.5)
5600m - 8:17.15 - (36.2)
6000m - 8:53.16 - (36.0)
6400m - 9:28.17 - (35.0)
6800m - 10:03.01 - (34.8)
7200m - 10:38.12 - (35.1)
7600m - 11:14.00 - (35.8)
8000m - 11:49.56 - (35.5)
8400m - 12:24.37 - (34.8)
8800m - 12:59.43 - (35.0)
9200m - 13:33.98 - (34.5)
9600m - 14:09.16 - (35.1)
10000m - 14:44.55 - (35.3)
59.50 44.227